FLYING LAPTOP

Last updated on Fri Jul 11 2025 00:03:28 GMT+0000 (Coordinated Universal Time)

1 42831U 17042G 25191.56376990 .00000781 00000+0 69222-4 0 9995 2 42831 97.4099 357.6095 0010646 198.9423 161.1406 14.98845498435243
UTC large
Height (km)
Speed (km/s)
/
Latitude / Longitude
Inclination (degrees)
Orbital Period (minutes)
Azimuth
Elevation
Range (km)
Doppler Factor

Next 0 passes for location: London (51.5072 / 0.1276)

Sorry there are no passes over London.